Tracking 17925 objects as of 22-January-2017
HD Live streaming from Space Station
objects crossing your sky now

FENGYUN 2B AKM

Track FENGYUN 2B AKM now!


NORAD ID: 26460
Int'l Code: 2000-032C
Perigee: 35,766.2 km
Apogee: 35,974.0 km
Inclination: 12.3 °
Period: 1,440.0 minutes
Semi major axis: 42241 km
RCS: 7.9432 m2 (large)
Launch date: June 25, 2000
Source: People's Republic of China (PRC)
Launch site: Xichang Space Center, China (XSC)

Note: This is a ROCKET BODY
Your satellite tracking list
Your tracking list is empty





NASA's NSSDC Master Catalog

Two Line Element Set (TLE):
1 26460U 00032C   17020.77536487 -.00000081  00000-0  00000+0 0  9999
2 26460  12.2507  34.5341 0024598 301.4095  58.3864  1.00193183 87765
Source of the keplerian elements: AFSPC